This demonstration page uses our WeatherBlox Daily Observations layout. Learn more.

Left ArrowRight Arrow

Hourly Observations for August 7, 2018

Temp ( °F °C ) Dew Point ( °F °C ) Humidity (%) Winds ( mph kmh ) Pressure ( in mb ) Visibility ( mi km ) Precip ( " mm )
12:51 am 00:51 Clear 82 27.8 73 22.8 74 74 SW 8 13 30.00 1016 10 16 0.00 0.00
1:51 am 01:51 Clear 81 27.2 73 22.8 77 77 SSW 6 9 29.99 1016 10 16 0.00 0.00
2:51 am 02:51 Clear 80 26.7 73 22.8 79 79 SW 8 13 29.98 1015 10 16 0.00 0.00
3:51 am 03:51 Clear 78 25.6 73 22.8 85 85 S 5 7 29.97 1015 10 16 0.00 0.00
4:51 am 04:51 Clear 78 25.6 73 22.8 85 85 S 3 6 29.98 1015 10 16 0.00 0.00
5:51 am 05:51 Clear 77 25 73 22.8 88 88 S 3 6 29.98 1015 10 16 0.00 0.03
6:51 am 06:51 Mostly Sunny 78 25.6 74 23.3 87 87 SSW 6 9 30.00 1016 7 11 0.00 0.00
7:51 am 07:51 Mostly Sunny 79 26.1 75 23.9 88 88 S 6 9 29.98 1015 7 11 0.00 0.00
8:51 am 08:51 Mostly Sunny 81 27.2 75 23.9 82 82 S 7 11 29.98 1015 8 13 0.00 0.00
9:51 am 09:51 Sunny 83 28.3 75 23.9 77 77 SSW 7 11 29.98 1015 8 13 0.00 0.00
10:51 am 10:51 Mostly Sunny 86 30 75 23.9 70 70 SSW 9 15 29.97 1015 8 13 0.00 0.00
11:51 am 11:51 Sunny 88 31.1 75 23.9 66 66 SSW 9 15 29.96 1015 9 14 0.00 0.00
12:51 pm 12:51 Mostly Sunny 89 31.7 74 23.3 61 61 SSW 14 22 29.94 1014 9 14 0.00 0.00
1:51 pm 13:51 Mostly Cloudy 90 32.2 75 23.9 62 62 S 12 19 29.92 1013 9 14 0.00 0.00
2:51 pm 14:51 Mostly Cloudy 91 32.8 73 22.8 56 56 S 9 15 29.90 1012 10 16 0.00 0.00
3:51 pm 15:51 Partly Cloudy 91 32.8 73 22.8 56 56 S 7 11 29.88 1012 10 16 0.00 0.00
4:51 pm 16:51 Partly Cloudy 90 32.2 73 22.8 58 58 S 10 17 29.86 1011 10 16 0.00 0.00
5:51 pm 17:51 Mostly Sunny 90 32.2 71 21.7 54 54 W 10 17 29.87 1011 10 16 0.00 0.00
6:51 pm 18:51 Mostly Cloudy with Thunderstorms 83 28.3 68 20 61 61 NNW 16 26 29.92 1013 10 16 0.00 0.00
6:56 pm 18:56 Mostly Cloudy with Thunderstorms 82 28 68 20 62 62 NW 22 35 29.94 1014 10 16 0.00 0.00
7:28 pm 19:28 Cloudy with Thunderstorms 75 24 72 22 89 89 NNW 9 15 29.88 1012 3 4 0.00 0.00
7:33 pm 19:33 Cloudy with Thunderstorms 75 23.9 72 22.2 90 90 N 8 13 29.88 1012 3 5 0.11 2.79
7:51 pm 19:51 Mostly Cloudy with Thunderstorms 76 24.4 72 22.2 88 88 Calm 29.90 1013 5 8 0.11 2.79
8:18 pm 20:18 Mostly Clear 77 25 73 23 89 89 Calm 29.88 1012 10 16 0.00 0.00
8:51 pm 20:51 Cloudy 78 25.6 73 22.8 85 85 S 3 6 29.91 1013 10 16 0.01 0.25
9:51 pm 21:51 Partly Cloudy 79 26.1 73 22.8 82 82 S 7 11 29.93 1014 10 16 0.00 0.00
10:51 pm 22:51 Clear 77 25 73 22.8 88 88 S 5 7 29.93 1013 10 16 0.00 0.00
11:51 pm 23:51 Clear 78 25.6 74 23.3 87 87 Calm 29.93 1013 10 16 0.00 0.00

Powered by Vaisala Xweather